Regional Weather Roundup
Issued by NWS

Home | Current Version | Previous Version | Graphics & Text | Print | Product List | Glossary Off
Versions: 1 2 3 4 5 6 7 8 9 10 11 12 13 14 15 16 17 18 19 20 21 22 23 24 25 26 27 28 29 30 31 32 33 34 35 36 37 38 39 40 41 42 43 44 45 46 47 48 49 50

347
ASUS43 KTOP 282008
RWRKS

WEATHER ROUNDUP FOR KANSAS
NATIONAL WEATHER SERVICE GOODLAND KS
300 PM CDT FRI APR 28 2017

NOTE:  "FAIR" INDICATES FEW OR NO CLOUDS BELOW 12,000 FEET WITH NO
SIGNIFICANT WEATHER AND/OR OBSTRUCTIONS TO VISIBILITY.

KSZ001>006-013>018-027>032-041>047-282100-
NORTHWEST KANSAS

CITY           SKY/WX    TMP DP  RH WIND       PRES   REMARKS
GOODLAND       CLOUDY    48  40  73 NE18G26   29.74R
HAYS           MOSUNNY   63  44  50 N14       29.70R
HILL CITY      CLOUDY    47  42  83 N21       29.77R
RUSSELL        MOSUNNY   65  45  48 N10       29.68R
$$

KSZ061>065-074>080-084>089-282100-
SOUTHWEST KANSAS

CITY           SKY/WX    TMP DP  RH WIND       PRES   REMARKS
DODGE CITY     MOSUNNY   65  37  35 N8        29.69R
ELKHART          N/A     52  37  56 MISG        N/A
GARDEN CITY    MOSUNNY   60  37  42 N17G23    29.70R
GREAT BEND     SUNNY     65  44  46 N14       29.68R
LIBERAL        CLOUDY    64  35  34 NW9G16    29.71R
PRATT          SUNNY     67  39  35 N14       29.65F
$$

KSZ066>073-081>083-090>101-282100-
SOUTHEAST KANSAS

CITY           SKY/WX    TMP DP  RH WIND       PRES   REMARKS
CHANUTE        CLOUDY    67  58  72 SW5       29.68S
COFFEYVILLE    CLOUDY    68  58  70 S5        29.67S
HUTCHINSON     MOSUNNY   72  45  37 VRB7      29.66R
MEDICINE LODGE   N/A     72  41  32 NE12G18   29.62F
NEWTON         SUNNY     71  47  42 VRB7      29.68R
PARSONS        PTSUNNY   67  58  72 SW5       29.69R
WICHITA INTL   MOSUNNY   71  47  42 W6        29.65R
WICHITA JABRA  SUNNY     71  49  45 VRB5      29.66R
WICHITA MCCONL MOSUNNY   72  45  38 CALM      29.66R
WINFIELD       SUNNY     73  51  46 NW5       29.65F
$$

KSZ007>012-019>026-033>040-048>060-102>105-282100-
NORTHEAST KANSAS

CITY           SKY/WX    TMP DP  RH WIND       PRES   REMARKS
CONCORDIA      CLOUDY    47  46  97 NE12      29.74R
EMPORIA        PTSUNNY   67  55  65 CALM      29.66R
LAWRENCE       CLOUDY    64  59  83 SE9       29.68S
MANHATTAN      PTSUNNY   58  52  80 N9        29.70R
MARYSVILLE     DRIZZLE   43  43 100 NE13      29.75R
OLATHE IND     CLOUDY    60  57  89 S7        29.69S
OLATHE EXE     CLOUDY    59  58  96 S9        29.69S
SALINA         CLOUDY    71  50  47 N9        29.67R
TOPEKA BILLARD PTSUNNY   67  59  75 CALM      29.67S
TOPEKA FORBES  PTSUNNY   67  57  70 S5        29.66S
$$




USA.gov is the U.S. government's official web portal to all federal, state and local government web resources and services.